Home   Weather   Gaza   Past weeks

Flag for Palestinian Territories Past Weather in Gaza, Gaza Strip, Palestinian Territories — Yesterday and Last 2 Weeks

Now
72 °F

Sunny.


Feels Like: 76 °F
Forecast: 57 / 77 °F
Wind: 6 mph from South

Location: Ben Gurion International Airport

Current Time: Apr 27, 2017 at 10:28:52 am

Latest Report: Apr 27, 2017 at 9:50 am


Visibility: 10 mi

Pressure: 29.98 "Hg

Humidity: 61%

Dew Point: 57 °F

Location of GazaLocation

Past Weather in Gaza — Graph

°F

Gaza Temperature Yesterday

Maximum temperature yesterday: 79 °F (at 12:20 pm)
Minimum temperature yesterday: 57 °F (at 3:50 am)
Average temperature yesterday: 67 °F

High & Low Weather Summary for the Past Weeks

 TemperatureHumidityPressure
High102 °F (Apr 22, 12:20 pm)88% (Apr 14, 3:20 am)30.12 "Hg (Apr 14, 3:20 am)
Low54 °F (Apr 17, 4:50 am)8% (Apr 22, 11:20 am)29.65 "Hg (Apr 13, 1:50 pm)
Average69 °F57%29.97 "Hg
* Reported Apr 12 9:20 am — Apr 27 9:20 am, Gaza, Weather by CustomWeather, © 2017

Note: Actual official high and low records may vary slightly from our data, if they occured in-between our weather recording intervals... More about our weather records

Advertising

Gaza Weather History for the Previous 24 Hours

Scroll right to see more
 ConditionsComfort  
Time TempWeatherWind HumidityBarometerVisibility
9:20 am
Thu, Apr 27
70 °FPassing clouds.7 mph69%29.98 "HgN/A
8:50 am68 °FPassing clouds.8 mph73%29.98 "HgN/A
8:20 am66 °FPassing clouds.6 mph78%29.95 "HgN/A
7:50 am66 °FClear.5 mph78%29.98 "Hg6 mi
7:20 am64 °FClear.5 mph83%29.95 "Hg5 mi
6:50 am64 °FClear.5 mph83%29.95 "Hg5 mi
6:20 am63 °FClear.5 mph88%29.95 "Hg5 mi
5:50 am63 °FPassing clouds.3 mph88%29.92 "HgN/A
5:20 am64 °FPassing clouds.3 mph88%29.92 "HgN/A
4:50 am64 °FPassing clouds.6 mph88%29.92 "HgN/A
4:20 am64 °FPassing clouds.5 mph88%29.95 "HgN/A
3:50 am64 °FPassing clouds.5 mph88%29.95 "HgN/A
3:20 am64 °FPassing clouds.5 mph88%29.95 "HgN/A
2:50 am64 °FPassing clouds.5 mph88%29.95 "HgN/A
1:50 am64 °FPassing clouds.5 mph88%29.95 "HgN/A
12:50 am66 °FPassing clouds.6 mph83%29.98 "HgN/A
12:20 am64 °FPassing clouds.5 mph88%29.98 "HgN/A
11:50 pm
Wed, Apr 26
66 °FPassing clouds.5 mph83%29.98 "HgN/A
11:20 pm66 °FPassing clouds.5 mph83%29.98 "HgN/A
10:50 pm66 °FPassing clouds.5 mph83%29.98 "HgN/A
10:20 pm66 °FPassing clouds.3 mph83%29.95 "HgN/A
9:50 pm66 °FClear.3 mph78%29.95 "Hg10 mi
8:50 pm66 °FClear.6 mph78%29.95 "Hg10 mi
8:20 pm66 °FClear.6 mph78%29.92 "Hg10 mi
7:50 pm68 °FClear.6 mph73%29.92 "Hg10 mi
7:20 pm68 °FClear.7 mph73%29.92 "Hg10 mi
6:50 pm70 °FSunny.12 mph69%29.92 "Hg10 mi
6:20 pm72 °FSunny.12 mph65%29.92 "Hg10 mi
5:50 pm73 °FSunny.12 mph57%29.89 "Hg10 mi
5:20 pm75 °FSunny.8 mph50%29.89 "Hg10 mi
4:50 pm75 °FSunny.10 mph54%29.92 "Hg10 mi
4:20 pm75 °FSunny.10 mph57%29.92 "Hg10 mi
3:50 pm75 °FSunny.14 mph54%29.92 "Hg10 mi
3:20 pm75 °FSunny.14 mph54%29.92 "Hg10 mi
2:50 pm75 °FPassing clouds.12 mph54%29.92 "HgN/A
2:20 pm77 °FSunny.10 mph51%29.92 "Hg10 mi
1:50 pm77 °FPassing clouds.9 mph47%29.95 "HgN/A
1:20 pm77 °FSunny.12 mph47%29.95 "Hg10 mi
12:50 pm79 °FSunny.10 mph45%29.95 "Hg10 mi
12:20 pm79 °FSunny.6 mph37%29.95 "Hg10 mi
11:50 am77 °FSunny.5 mph42%29.95 "Hg10 mi
11:20 am77 °FSunny.3 mph36%29.95 "Hg10 mi
10:50 am73 °FSunny.3 mph41%29.98 "Hg10 mi
10:20 am72 °FSunny.3 mph47%29.98 "Hg10 mi
Weather by CustomWeather, © 2017

See weather overviewHow to use our weather pages